User: anonymous   Login
Location: Phoenix
(33.4480°N, 112.0730°W)
Time: 12:59:44
(UTC-07:00)
Language:

Hubble Space Telescope - Orbit

View from above orbital plane
View from above orbital plane
View from above satellite
View from above satellite

Ground track
Ground track

The orbit data is extracted from the following two-line orbital elements,

1 20580U 90037B   15241.86505426 +.00001420 +00000-0 +79526-4 0  9993
2 20580 028.4709 028.1945 0002763 311.7540 178.6301 15.07650507190850
Epoch (UTC): 29 August 2015 20:45:40
Eccentricity: 0.0002763
inclination: 28.4709°
perigee height: 541 km
apogee height: 545 km
right ascension of ascending node: 28.1945°
argument of perigee: 311.7540°
revolutions per day: 15.07650507
mean anomaly at epoch: 178.6301°
orbit number at epoch: 19085

The dashed part of the orbit path shows where the satellite is in the earth's shadow,  

DLR